Skip Page Navigation
NASA JPL Caltech
NASA Logo - Jet Propulsion Laboratory + View the NASA Portal
+ Center for Near-Earth Object Studies
JPL Home Earth Solar System Stars & Galaxies Technology
JPL Solar System Dynamics
BODIES ORBITS EPHEMERIDES TOOLS PHYSICAL DATA DISCOVERY FAQ SITE MAP
JPL Small-Body Database Browser
Search: [ help ]  
324212 (2006 BY23)
Classification: Main-belt Asteroid          SPK-ID: 2324212
Ephemeris | Orbit Diagram | Orbital Elements | Mission Design | Physical Parameters | Discovery Circumstances | Close-Approach Data ]

[ show orbit diagram ]
Orbital Elements at Epoch 2459000.5 (2020-May-31.0) TDB
Reference: JPL 15 (heliocentric ecliptic J2000)
 Element Value Uncertainty (1-sigma)   Units 
e .162582883331178 7.2337e-08  
a 3.13423846646887 3.4718e-08 au
q 2.624664939542871 2.3859e-07 au
i 9.373991669916791 7.7999e-06 deg
node 319.1094166057203 2.9598e-05 deg
peri 205.1618769863964 3.3098e-05 deg
M 195.1810400171975 1.8061e-05 deg
tp 2459928.399947372164
(2022-Dec-14.89994737)
0.00011314 TDB
period 2026.732732015989
5.55
3.3675e-05
9.22e-08
d
yr
n .1776257886958328 2.9514e-09 deg/d
Q 3.643811993394868 4.0363e-08 au
  Orbit Determination Parameters
   # obs. used (total)      300  
   data-arc span      6246 days (17.10 yr)  
   first obs. used      2003-09-30  
   last obs. used      2020-11-05  
   planetary ephem.      DE431  
   SB-pert. ephem.      SB431-N16  
   condition code      0  
   norm. resid. RMS      .56263  
   source      ORB  
   producer      Otto Matic  
   solution date      2020-Dec-18 06:15:48  

Additional Information
 Earth MOID = 1.63654 au 
 Jupiter MOID = 1.38994 au 
 T_jup = 3.171 
[ show covariance matrix ]

Ephemeris | Orbit Diagram | Orbital Elements | Mission Design | Physical Parameters | Discovery Circumstances | Close-Approach Data ]

Physical Parameter Table
Parameter Symbol Value Units Sigma Reference Notes
absolute magnitude H 15.5   n/a MPO418665  

324212 (2006 BY23)          Discovered 2006-Jan-23 by CSS at Catalina
Reference: 20120406/Numbers.arcLast Updated: 2012-04-09

[ hide close-approach data ]
Close-Approach Data   ...sorted by Date/Time (TDB)
Date/Time (TDB) Time Uncertainty
(days_HH:MM)
Body Nominal Distance (au) Minimum Distance (au) Maximum Distance (au) V-relative (km/s) V-infinity (km/s) JD (TDB) Time Uncertainty (minutes) Semi-major axis (km) Semi-minor axis (km) range-LOV angle (deg) N-sigma BP Orbit Ref. Reference Modified
1902-Sep-28 10:23 00:06 Jupiter 1.48030527320328 1.48030193123149 1.4803086157052 2.81139504216022 2.59991405817322 2416020.932942577 5.98703438696123 1490.49300108283 4.55728191424462 84.3297152626172 1206545.95767766 T 15 CATAB v2.0f-lin.ifort 2020-Dec-18 06:15:48 2020-Dec-18 06:15
1976-Jul-27 07:32 00:03 Jupiter 1.90215776890856 1.9021557893527 1.90215974846171 2.40596660260079 2.2131615531717 2442986.813595259 2.80054689513894 67.1578263792781 30.7262991055997 -70.4939492635113 608086.680186922 T 15 CATAB v2.0f-lin.ifort 2020-Dec-18 06:15:48 2020-Dec-18 06:15
1986-Oct-09 21:48 00:02 Jupiter 1.43408449187566 1.43408366143421 1.43408532232126 2.33480083061298 2.06640317914561 2446713.408131326 1.73636589598314 517.352389653346 75.8461426868303 89.6107353830864 1036844.79580658 T 15 CATAB v2.0f-lin.ifort 2020-Dec-18 06:15:48 2020-Dec-18 06:15
1997-Mar-30 05:51 00:01 Jupiter 1.6440548502895 1.64405377320147 1.64405592738642 2.98839323314476 2.81070942601931 2450537.743502609 1.04858827056659 257.900149372741 15.9425179239899 79.976094726556 1483281.14984108 T 15 CATAB v2.0f-lin.ifort 2020-Dec-18 06:15:48 2020-Dec-18 06:15
2070-Dec-30 07:14 00:03 Jupiter 1.72200522651065 1.72200330873037 1.7220071443108 1.62795554261846 1.29092069719115 2477475.801054514 3.40604201056651 405.469690684202 81.5845590369663 78.2124610784888 1756872.13801424 T 15 CATAB v2.0f-lin.ifort 2020-Dec-18 06:15:48 2020-Dec-18 06:15
2081-Apr-14 23:40 00:03 Jupiter 1.41012193803096 1.41012124421915 1.41012263187171 2.51878946559055 2.26780816834855 2481234.486149597 3.35184350039317 590.90481776318 51.3953026370427 88.7931910236002 1062255.02963542 T 15 CATAB v2.0f-lin.ifort 2020-Dec-18 06:15:48 2020-Dec-18 06:15
2091-Sep-27 22:15 00:04 Jupiter 1.83157998048153 1.83157658622777 1.83158337476392 3.27251593043124 3.12801077250817 2485052.426942579 4.23399684888459 413.25016291582 21.6573328029216 67.8313221521894 1854216.345566 T 15 CATAB v2.0f-lin.ifort 2020-Dec-18 06:15:48 2020-Dec-18 06:15
2165-Jun-06 20:41 00:10 Jupiter 1.57202276321845 1.57201814724399 1.57202737987248 1.55313735446444 1.15525514830176 2511967.361799982 9.60797411385843 2124.44018120478 479.307355853672 -67.0528517997882 594025.985691245 T 15 CATAB v2.0f-lin.ifort 2020-Dec-18 06:15:48 2020-Dec-18 06:15
2175-Oct-23 16:28 00:09 Jupiter 1.48443566694817 1.48443211138714 1.48443922308669 2.72578095649952 2.50772348446721 2515758.186276827 8.53913211904051 1558.90686170953 12.6582675849708 85.2934823790991 1019639.61050352 T 15 CATAB v2.0f-lin.ifort 2020-Dec-18 06:15:48 2020-Dec-18 06:15
Ephemeris | Orbit Diagram | Orbital Elements | Mission Design | Physical Parameters | Discovery Circumstances | Close-Approach Data ]
ABOUT SSD CREDITS/AWARDS PRIVACY/COPYRIGHT GLOSSARY LINKS
FirstGov 2021-Jan-26 17:32 UT
(server date/time)  
NASA Home Page
Site Manager:   Ryan S. Park
Webmaster  Alan B. Chamberlin